TITAN 3C TRANSTAGE R/B, 50000

Orbit data source: Space-Track

TITAN 3C TRANSTAGE R/B, 50000 is space debris in HEO originally from a launch on Wed, 08 Apr 1970 UTC launched from the Air Force Eastern Test Range (AFETR). Debris objects in space refer to the collection of defunct objects orbiting the Earth. Examples of debris include non-operational satellites, rocket bodies, and fragments generated from explosions, collisions, or faulty payload assembly.

Loading next visibility...
Identifier
50000, 1970-027C
Orbit
HEO
Country
Flag of USUS
Related business
Manufacturer
Martin Marietta
Mission
Spacecraft
Bus & Motor
TRANSTAGE, Unknown motor
Mass
~0 kg wet, ~2,000 kg dry
Launch date (UTC)
1970-04-08 (56 years ago)
Launch vehicle
Unknown
Launch site
Air Force Eastern Test Range (AFETR)
Object type
Payload
Rocket body
Debris
Shape & HBR
Cyl + 2 Nozzle, 2.3 m
Radar Cross Section
14.974 m², Large (>1 m²)

Expand to show TLE details & history
Last TLE update: 2 days ago

TLE from 2 days ago
0 TITAN 3C TRANSTAGE R/B
1 50000U 70027C   26171.51028538 -.00000919  00000-0  00000+0 0  9999
2 50000  45.4605  69.4509 6922084 201.3285   0.1855  0.44284934 91171
Epoch: 2026-06-20T12:14Z
TLE epoch observation values (Epoch: 2026-06-20T12:14:48.656Z)
Latitude
-15.62701°
Longitude
172.97238°
Altitude
15,744.043 km
Speed
5.528 km/s
True Right ascension
17h 41m 35s
True Declination
-15° 35' 54"
Sunlit
Object was in full shadow at epoch
Visualization orbit readout
Latitude
Unknown
Longitude
Unknown
Altitude
Unknown
Speed
Unknown
Apparent Right ascension
Unknown
Apparent Declination
Unknown
Sunlit
N/A
Visualization observer readout
Local Sidereal Time
00:33:49
Azimuth
Unknown
Elevation
Unknown
Doppler factor
Unknown
Orbital elements
Apogee altitude
116,654.664 km
Perigee altitude
15,999.995 km
Semi-major axis
72,705.466 km
Eccentricity
0.69221
Inclination
45.4605°
RAAN
69.4509°
Arg. of periapsis
201.3285°
True anomaly
1.41302°
Mean anomaly
0.1855°
Eccentric anomaly
0.60266°
Mean motion
0.11071 °/min
Orbital period
3,251.7 mins
BSTAR
0
Loading maneuver chart data...
Computing Atmospheric mass density...
Loading historical data...
Loading historical data...
Loading historical data...
Loading historical data...
Loading historical data...
Loading historical data...
Loading historical data...
Other satellites on launch #27 in the year 1970 (1970-04-08 UTC)

Documentation

Showing up to 5 results
|